Miscellaneous Local Product
Issued by NWS North Platte, NE

Home | Current Version | Previous Version | Text Only | Print | Product List | Glossary On
Versions: 1 2 3 4 5 6 7 8 9 10 11 12 13 14 15 16 17 18 19 20 21 22 23 24 25 26 27 28 29 30 31 32 33 34 35 36 37 38 39 40 41 42 43 44 45 46 47 48 49 50
000
AXUS43 KLBF 281910
MISLBF


WESTERN AND NORTH CENTRAL NEBRASKA HOURLY WEATHER ROUNDUP
NATIONAL WEATHER SERVICE NORTH PLATTE NE
200 PM CDT FRI AUG 28 2015

NOTE: "FAIR" INDICATES FEW OR NO CLOUDS BELOW 12,000 FEET WITH NO
SIGNIFICANT WEATHER AND/OR OBSTRUCTIONS TO VISIBILITY.

NOTE: STATIONS NOT REPORTING VARIABLES SUCH AS SKY/WEATHER OR
PRESSURE ARE PROVIDED BY THE NEBRASKA DEPARTMENT OF
ROADS...RAWS...AND APRS NETWORKS...AND ARE NOT UNDER
NATIONAL WEATHER SERVICE QUALITY CONTROL.

...OBSERVATIONS IN AND NEAR THE EASTERN PANHANDLE OF NEBRASKA...

CITY           SKY/WX    TMP DP  RH WIND       PRES   REMARKS
PINE RIDGE     SUNNY     82  54  37 NW7       30.06F
CHADRON        SUNNY     86  49  27 VRB3      30.06F
ALLIANCE       SUNNY     87  49  26 N15       30.09F
SIDNEY         SUNNY     87  47  24 N15G25    30.13F
BIG SPRINGS      N/A     84  58  40 N5          N/A
$$

...OBSERVATIONS IN NORTH CENTRAL NEBRASKA...

CITY           SKY/WX    TMP DP  RH WIND       PRES   REMARKS
VALENTINE      MOSUNNY   78  62  57 N7        30.02S
THEDFORD       MOSUNNY   79  64  60 N9G16     30.03F
AINSWORTH      PTSUNNY   73  64  75 N9        30.03S
O`NEILL        CLOUDY    73  65  76 N7        29.98S
ORD            CLOUDY    74  62  66 N16       29.96F
BROKEN BOW     CLOUDY    73  63  70 N13       30.00S
SPRINGVIEW       N/A     72  65  77 NW5         N/A
SARGENT          N/A     73  64  73 NE3         N/A
CHAMBERS         N/A     75  64  69 N6          N/A
EWING            N/A     69  63  81 N7G14       N/A
$$

...OBSERVATIONS IN SOUTHWEST NEBRASKA AND FAR NORTHEAST COLORADO...

CITY           SKY/WX    TMP DP  RH WIND       PRES   REMARKS
WRAY           FAIR      91  47  22 N18       30.08F
HOLYOKE        FAIR      88  46  23 N18G24    30.08F
IMPERIAL       SUNNY     86  55  34 N12       30.04F
OGALLALA       SUNNY     87  53  31 N13       30.04F
NORTH PLATTE   MOSUNNY   80  63  55 NW8       30.01F
MCCOOK         MOSUNNY   85  62  46 N15G25    29.99F
LEXINGTON      CLOUDY    77  66  67 N13       29.99S
PAXTON           N/A     84  60  44 N8          N/A
BRADY            N/A     77  65  65 CALM        N/A
CALLAWAY         N/A     75  69  81 NE10        N/A
$$

...OBSERVATIONS IN CENTRAL LINCOLN COUNTY AREA...

CITY           SKY/WX    TMP DP  RH WIND       PRES   REMARKS
N.P. AIRPORT   MOSUNNY   80  63  55 NW8       30.01F
N.P. DOWNTOWN    N/A     79  64  60 N10         N/A
N.P. SOUTHEAST   N/A     79  63  57 N6G13       N/A
$$

...SOME OBSERVATIONS FROM AROUND THE REGION...

CITY           SKY/WX    TMP DP  RH WIND       PRES   REMARKS
DENVER         MOSUNNY   83  41  22 NW13G23   30.24F
LARAMIE        SUNNY     70  40  33 N5        30.38F
CHEYENNE       MOSUNNY   77  43  29 NW7       30.28F
SCOTTSBLUFF    SUNNY     86  51  29 NW13      30.11F
RAPID CITY     SUNNY     84  55  36 N10       30.04F
PIERRE         MOSUNNY   77  66  68 S3        29.97S
WINNER         CLOUDY    75  63  66 NE5       30.01S
SIOUX FALLS    CLOUDY    70  62  76 E16       29.94S
OMAHA          CLOUDY    77  70  79 S9        29.82F
GRAND ISLAND   CLOUDY    76  62  62 N16       29.94F
KANSAS CITY    PTSUNNY   77  65  66 S17       29.92F
WICHITA        MOSUNNY   86  68  54 SW12      29.91F
HAYS           SUNNY     90  59  35 N13G21    29.93F
LIBERAL        SUNNY     90  57  33 N13G18    30.05F
GOODLAND       SUNNY     90  47  22 N17G25    30.05F
$$



USA.gov is the U.S. government's official web portal to all federal, state and local government web resources and services.